KLM86N EGGD-EHAM

Flight info

Callsign KLM86N
Flight time 0h 52m
Altitude 29000
Route YORQI L607 ALHAD P72 IPRIL M197 REDFA
Aircraft B738/M-SDE2E3FGHIRWXY/LB1

Departure

Time 2026-05-05 11:26
Airport Bristol Airport (EGGD)

Arrival

Time 2026-05-05 12:19
Airport Amsterdam Airport Schiphol (EHAM)
Time Latitude Longitude Altitude Speed Heading
2026-05-05 11:01 51.38560 -2.72095 606 ft 0 kts 284°
2026-05-05 11:19 51.38557 -2.72072 610 ft 4 kts 272°
2026-05-05 11:19 51.38562 -2.72035 617 ft 4 kts 223°
2026-05-05 11:20 51.38578 -2.72021 622 ft 0 kts 189°
2026-05-05 11:22 51.38575 -2.72022 606 ft 2 kts 190°
2026-05-05 11:23 51.38538 -2.72029 618 ft 9 kts 182°
2026-05-05 11:23 51.38463 -2.72028 611 ft 12 kts 179°
2026-05-05 11:23 51.38430 -2.72085 604 ft 7 kts 259°
2026-05-05 11:23 51.38425 -2.72178 618 ft 10 kts 268°
2026-05-05 11:24 51.38420 -2.72342 609 ft 19 kts 267°
2026-05-05 11:24 51.38410 -2.72600 620 ft 28 kts 266°
2026-05-05 11:24 51.38398 -2.72875 605 ft 23 kts 265°
2026-05-05 11:24 51.38390 -2.73126 606 ft 22 kts 267°
2026-05-05 11:25 51.38335 -2.73333 614 ft 22 kts 203°
2026-05-05 11:25 51.38225 -2.73307 623 ft 14 kts 127°
2026-05-05 11:25 51.38219 -2.73156 629 ft 14 kts 86°
2026-05-05 11:25 51.38240 -2.72643 637 ft 87 kts 86°
2026-05-05 11:26 51.38295 -2.71243 614 ft 162 kts 85°
2026-05-05 11:26 51.38341 -2.69264 1162 ft 189 kts 84°
2026-05-05 11:26 51.38366 -2.67131 2195 ft 191 kts 84°
2026-05-05 11:26 51.38399 -2.64965 2927 ft 201 kts 84°
2026-05-05 11:27 51.38419 -2.62647 3298 ft 217 kts 84°
2026-05-05 11:27 51.38504 -2.60148 3658 ft 231 kts 82°
2026-05-05 11:27 51.38630 -2.57583 4164 ft 237 kts 78°
2026-05-05 11:27 51.39297 -2.55216 4697 ft 236 kts 44°
2026-05-05 11:28 51.40587 -2.53607 5251 ft 239 kts 27°
2026-05-05 11:28 51.42099 -2.52285 5671 ft 256 kts 25°
2026-05-05 11:28 51.43690 -2.50946 6000 ft 261 kts 25°
2026-05-05 11:28 51.45310 -2.49561 6012 ft 264 kts 27°
2026-05-05 11:29 51.46868 -2.48043 6006 ft 262 kts 29°
2026-05-05 11:29 51.48395 -2.46514 6006 ft 262 kts 29°
2026-05-05 11:29 51.49948 -2.44960 6077 ft 264 kts 29°
2026-05-05 11:29 51.51314 -2.42940 6689 ft 275 kts 55°
2026-05-05 11:30 51.51953 -2.40041 7651 ft 279 kts 81°
2026-05-05 11:30 51.51887 -2.36919 8602 ft 281 kts 93°
2026-05-05 11:30 51.51663 -2.33787 9434 ft 285 kts 95°
2026-05-05 11:30 51.51421 -2.30615 10217 ft 288 kts 96°
2026-05-05 11:31 51.51179 -2.27319 10531 ft 310 kts 95°
2026-05-05 11:31 51.50928 -2.23747 10733 ft 333 kts 95°
2026-05-05 11:31 51.50665 -2.19936 11031 ft 351 kts 95°
2026-05-05 11:31 51.50394 -2.15989 11658 ft 358 kts 95°
2026-05-05 11:32 51.50117 -2.12003 12424 ft 360 kts 95°
2026-05-05 11:32 51.49837 -2.07982 13178 ft 364 kts 95°
2026-05-05 11:32 51.49557 -2.03978 13879 ft 368 kts 95°
2026-05-05 11:32 51.49269 -1.99872 14496 ft 372 kts 95°
2026-05-05 11:33 51.48973 -1.95730 15154 ft 375 kts 96°
2026-05-05 11:33 51.48668 -1.91553 15798 ft 378 kts 96°
2026-05-05 11:33 51.48359 -1.87349 16444 ft 381 kts 96°
2026-05-05 11:33 51.48045 -1.83102 17084 ft 385 kts 97°
2026-05-05 11:34 51.47727 -1.78805 17679 ft 389 kts 97°
2026-05-05 11:34 51.47406 -1.74477 18267 ft 394 kts 97°
2026-05-05 11:34 51.47079 -1.70093 18785 ft 397 kts 98°
2026-05-05 11:34 51.46689 -1.65689 19325 ft 400 kts 102°
2026-05-05 11:35 51.46112 -1.61321 19867 ft 402 kts 104°
2026-05-05 11:35 51.45472 -1.56943 20394 ft 405 kts 104°
2026-05-05 11:35 51.44839 -1.52528 20902 ft 408 kts 104°
2026-05-05 11:35 51.44259 -1.48055 21390 ft 412 kts 99°
2026-05-05 11:36 51.44148 -1.43445 21870 ft 418 kts 87°
2026-05-05 11:36 51.44605 -1.38804 22270 ft 426 kts 77°
2026-05-05 11:36 51.45459 -1.34237 22731 ft 429 kts 74°
2026-05-05 11:36 51.46351 -1.29702 23183 ft 433 kts 73°
2026-05-05 11:37 51.47260 -1.25094 23634 ft 436 kts 74°
2026-05-05 11:37 51.48169 -1.20441 24026 ft 438 kts 74°
2026-05-05 11:37 51.49072 -1.15766 24432 ft 440 kts 74°
2026-05-05 11:37 51.49975 -1.11045 24845 ft 441 kts 75°
2026-05-05 11:38 51.50865 -1.06349 25224 ft 444 kts 75°
2026-05-05 11:38 51.51759 -1.01601 25603 ft 446 kts 75°
2026-05-05 11:38 51.52624 -0.96989 25948 ft 449 kts 75°
2026-05-05 11:38 51.53523 -0.92179 26314 ft 450 kts 75°
2026-05-05 11:39 51.54120 -0.88981 26630 ft 449 kts 75°
2026-05-05 11:39 51.55008 -0.84212 26992 ft 450 kts 75°
2026-05-05 11:39 51.55909 -0.79360 26973 ft 453 kts 75°
2026-05-05 11:39 51.56800 -0.74551 26976 ft 450 kts 75°
2026-05-05 11:40 51.57687 -0.69752 26967 ft 447 kts 76°
2026-05-05 11:40 51.58572 -0.64951 26982 ft 449 kts 76°
2026-05-05 11:40 51.59460 -0.60123 26991 ft 451 kts 76°
2026-05-05 11:40 51.60335 -0.55349 26975 ft 453 kts 76°
2026-05-05 11:41 51.61224 -0.50483 26971 ft 454 kts 76°
2026-05-05 11:41 51.62116 -0.45596 26969 ft 455 kts 76°
2026-05-05 11:41 51.63001 -0.40732 26967 ft 455 kts 76°
2026-05-05 11:41 51.63889 -0.35839 26991 ft 454 kts 76°
2026-05-05 11:42 51.64771 -0.30965 26989 ft 453 kts 76°
2026-05-05 11:42 51.65651 -0.26095 26992 ft 451 kts 76°
2026-05-05 11:42 51.66513 -0.21304 26989 ft 450 kts 76°
2026-05-05 11:42 51.67379 -0.16483 26995 ft 449 kts 76°
2026-05-05 11:43 51.68240 -0.11671 27004 ft 449 kts 76°
2026-05-05 11:43 51.68761 -0.08756 27063 ft 448 kts 76°
2026-05-05 11:43 51.69615 -0.03965 27165 ft 448 kts 76°
2026-05-05 11:43 51.70418 0.00555 27275 ft 447 kts 76°
2026-05-05 11:44 51.71273 0.05374 27428 ft 445 kts 76°
2026-05-05 11:44 51.71929 0.09078 27566 ft 444 kts 76°
2026-05-05 11:44 51.72776 0.13879 27579 ft 446 kts 76°
2026-05-05 11:44 51.73628 0.18713 27582 ft 450 kts 76°
2026-05-05 11:45 51.74490 0.23619 27728 ft 456 kts 76°
2026-05-05 11:45 51.75354 0.28545 28140 ft 456 kts 76°
2026-05-05 11:45 51.76211 0.33444 28697 ft 452 kts 76°
2026-05-05 11:45 51.77061 0.38314 29003 ft 453 kts 77°
2026-05-05 11:46 51.77915 0.43236 28990 ft 456 kts 77°
2026-05-05 11:46 51.79619 0.53090 28972 ft 453 kts 77°
2026-05-05 11:47 51.81297 0.62852 28976 ft 454 kts 77°
2026-05-05 11:47 51.82984 0.72726 28976 ft 457 kts 77°
2026-05-05 11:48 51.85511 0.87613 28968 ft 460 kts 77°
2026-05-05 11:48 51.87199 0.97624 28973 ft 461 kts 77°
2026-05-05 11:49 51.88844 1.07440 28975 ft 461 kts 77°
2026-05-05 11:49 51.90513 1.17457 28971 ft 461 kts 77°
2026-05-05 11:50 51.92172 1.27472 28919 ft 459 kts 78°
2026-05-05 11:50 51.92997 1.32476 28576 ft 459 kts 78°
2026-05-05 11:50 51.93817 1.37459 28336 ft 457 kts 77°
2026-05-05 11:51 51.94636 1.42454 28077 ft 458 kts 77°
2026-05-05 11:51 51.95449 1.47432 27822 ft 459 kts 77°
2026-05-05 11:51 51.96265 1.52442 27571 ft 459 kts 77°
2026-05-05 11:51 51.97077 1.57441 27305 ft 460 kts 77°
2026-05-05 11:52 51.97892 1.62474 26999 ft 461 kts 77°
2026-05-05 11:52 51.98707 1.67517 26680 ft 462 kts 77°
2026-05-05 11:52 51.99518 1.72551 26375 ft 462 kts 77°
2026-05-05 11:52 52.00326 1.77586 26077 ft 462 kts 77°
2026-05-05 11:53 52.01134 1.82629 25776 ft 461 kts 77°
2026-05-05 11:53 52.01940 1.87682 25478 ft 460 kts 77°
2026-05-05 11:53 52.02738 1.92697 25260 ft 457 kts 77°
2026-05-05 11:53 52.03527 1.97670 25043 ft 455 kts 77°
2026-05-05 11:54 52.04279 2.02422 24848 ft 455 kts 77°
2026-05-05 11:54 52.05065 2.07410 24645 ft 455 kts 77°
2026-05-05 11:54 52.05838 2.12325 24442 ft 453 kts 77°
2026-05-05 11:54 52.06624 2.17338 24236 ft 452 kts 77°
2026-05-05 11:55 52.07398 2.22290 24036 ft 451 kts 77°
2026-05-05 11:55 52.08167 2.27226 23840 ft 450 kts 77°
2026-05-05 11:55 52.08921 2.32087 23642 ft 449 kts 77°
2026-05-05 11:55 52.09685 2.37011 23419 ft 448 kts 77°
2026-05-05 11:56 52.10442 2.41912 23187 ft 447 kts 77°
2026-05-05 11:56 52.11195 2.46790 22972 ft 443 kts 76°
2026-05-05 11:56 52.12276 2.51463 22667 ft 443 kts 62°
2026-05-05 11:56 52.13835 2.55720 22294 ft 434 kts 59°
2026-05-05 11:57 52.15398 2.59871 21890 ft 425 kts 59°
2026-05-05 11:57 52.16926 2.63948 21523 ft 417 kts 60°
2026-05-05 11:57 52.18410 2.67959 21151 ft 410 kts 60°
2026-05-05 11:57 52.19857 2.71917 20794 ft 402 kts 60°
2026-05-05 11:58 52.21271 2.75819 20438 ft 396 kts 60°
2026-05-05 11:58 52.22654 2.79661 20102 ft 391 kts 60°
2026-05-05 11:58 52.24022 2.83472 19759 ft 387 kts 61°
2026-05-05 11:58 52.25375 2.87251 19434 ft 384 kts 60°
2026-05-05 11:59 52.26702 2.90967 19099 ft 383 kts 60°
2026-05-05 11:59 52.28042 2.94722 18780 ft 383 kts 60°
2026-05-05 11:59 52.29384 2.98484 18427 ft 381 kts 60°
2026-05-05 11:59 52.30669 3.02094 18077 ft 380 kts 60°
2026-05-05 12:00 52.31992 3.05814 17714 ft 376 kts 60°
2026-05-05 12:00 52.33300 3.09499 17348 ft 373 kts 60°
2026-05-05 12:00 52.34595 3.13151 17077 ft 368 kts 60°
2026-05-05 12:00 52.35869 3.16752 16817 ft 368 kts 60°
2026-05-05 12:01 52.37159 3.20400 16569 ft 370 kts 60°
2026-05-05 12:01 52.38444 3.24043 16310 ft 368 kts 60°
2026-05-05 12:01 52.39725 3.27677 16048 ft 368 kts 60°
2026-05-05 12:01 52.40989 3.31266 15809 ft 367 kts 60°
2026-05-05 12:02 52.42264 3.34892 15555 ft 367 kts 60°
2026-05-05 12:02 52.43531 3.38501 15287 ft 364 kts 60°
2026-05-05 12:02 52.44757 3.42110 14902 ft 361 kts 65°
2026-05-05 12:02 52.45506 3.46010 14599 ft 355 kts 77°
2026-05-05 12:03 52.46047 3.49943 14204 ft 353 kts 77°
2026-05-05 12:03 52.46566 3.53872 13815 ft 351 kts 77°
2026-05-05 12:03 52.47090 3.57786 13379 ft 349 kts 77°
2026-05-05 12:03 52.47621 3.61659 12940 ft 348 kts 77°
2026-05-05 12:04 52.48154 3.65481 12526 ft 347 kts 76°
2026-05-05 12:04 52.48696 3.69331 12135 ft 344 kts 76°
2026-05-05 12:04 52.49233 3.73136 11728 ft 343 kts 76°
2026-05-05 12:04 52.49772 3.76944 11343 ft 340 kts 76°
2026-05-05 12:05 52.50304 3.80715 10944 ft 338 kts 76°
2026-05-05 12:05 52.50831 3.84449 10686 ft 332 kts 76°
2026-05-05 12:05 52.51342 3.88088 10544 ft 323 kts 76°
2026-05-05 12:05 52.51838 3.91627 10400 ft 314 kts 76°
2026-05-05 12:06 52.52294 3.95089 10260 ft 306 kts 82°
2026-05-05 12:06 52.52135 3.98519 10064 ft 299 kts 107°
2026-05-05 12:06 52.51466 4.01555 9992 ft 289 kts 112°
2026-05-05 12:06 52.50712 4.04592 9718 ft 287 kts 113°
2026-05-05 12:07 52.49949 4.07615 9425 ft 285 kts 113°
2026-05-05 12:07 52.49196 4.10616 9138 ft 283 kts 112°
2026-05-05 12:07 52.48454 4.13594 8851 ft 281 kts 112°
2026-05-05 12:07 52.47722 4.16555 8569 ft 279 kts 112°
2026-05-05 12:08 52.46997 4.19499 8292 ft 277 kts 112°
2026-05-05 12:08 52.46292 4.22365 8268 ft 265 kts 112°
2026-05-05 12:08 52.45620 4.25101 8245 ft 254 kts 112°
2026-05-05 12:08 52.44961 4.27782 8103 ft 254 kts 112°
2026-05-05 12:09 52.44306 4.30437 7828 ft 254 kts 112°
2026-05-05 12:09 52.43646 4.33112 7569 ft 253 kts 112°
2026-05-05 12:09 52.42964 4.35765 7307 ft 252 kts 119°
2026-05-05 12:09 52.41778 4.37800 7040 ft 249 kts 153°
2026-05-05 12:10 52.40135 4.38532 6822 ft 245 kts 178°
2026-05-05 12:10 52.38437 4.38446 6587 ft 243 kts 185°
2026-05-05 12:10 52.36757 4.38198 6334 ft 242 kts 185°
2026-05-05 12:10 52.35076 4.37939 6064 ft 242 kts 185°
2026-05-05 12:11 52.33404 4.37696 5828 ft 240 kts 185°
2026-05-05 12:11 52.31735 4.37468 5556 ft 239 kts 184°
2026-05-05 12:11 52.30083 4.37252 5330 ft 238 kts 184°
2026-05-05 12:11 52.28434 4.37040 5074 ft 237 kts 184°
2026-05-05 12:12 52.26789 4.36831 4819 ft 237 kts 184°
2026-05-05 12:12 52.25159 4.36697 4591 ft 231 kts 173°
2026-05-05 12:12 52.23740 4.37640 4329 ft 216 kts 133°
2026-05-05 12:12 52.22833 4.39450 4124 ft 203 kts 116°
2026-05-05 12:13 52.22223 4.41450 3910 ft 193 kts 111°
2026-05-05 12:13 52.21672 4.43409 3685 ft 186 kts 110°
2026-05-05 12:13 52.21143 4.45286 3481 ft 178 kts 110°
2026-05-05 12:13 52.20864 4.47178 3223 ft 168 kts 85°
2026-05-05 12:14 52.20860 4.49062 2949 ft 164 kts 88°
2026-05-05 12:14 52.20828 4.50906 2687 ft 161 kts 88°
2026-05-05 12:14 52.20856 4.52714 2397 ft 157 kts 71°
2026-05-05 12:14 52.21401 4.54215 2078 ft 152 kts 54°
2026-05-05 12:15 52.21979 4.55636 2050 ft 156 kts 55°
2026-05-05 12:15 52.22569 4.57146 2009 ft 156 kts 56°
2026-05-05 12:15 52.23142 4.58638 1989 ft 151 kts 56°
2026-05-05 12:15 52.23682 4.60052 1954 ft 147 kts 57°
2026-05-05 12:16 52.24214 4.61446 1809 ft 140 kts 56°
2026-05-05 12:16 52.24734 4.62805 1601 ft 141 kts 56°
2026-05-05 12:16 52.25258 4.64176 1406 ft 143 kts 57°
2026-05-05 12:16 52.25781 4.65545 1224 ft 139 kts 56°
2026-05-05 12:17 52.26293 4.66882 1016 ft 138 kts 57°
2026-05-05 12:17 52.26782 4.68143 839 ft 128 kts 54°
2026-05-05 12:17 52.27241 4.69377 638 ft 127 kts 55°
2026-05-05 12:17 52.27704 4.70592 466 ft 123 kts 57°
2026-05-05 12:18 52.28158 4.71762 304 ft 121 kts 53°
2026-05-05 12:18 52.28602 4.72905 156 ft 121 kts 54°
2026-05-05 12:18 52.29048 4.74075 17 ft 117 kts 57°
2026-05-05 12:18 52.29440 4.75103 -4 ft 94 kts 58°
2026-05-05 12:19 52.29656 4.75656 -3 ft 32 kts 53°
2026-05-05 12:19 52.29796 4.75814 -3 ft 20 kts 28°
2026-05-05 12:19 52.29887 4.75893 -2 ft 8 kts 28°
2026-05-05 12:19 52.29935 4.75935 -2 ft 8 kts 27°
2026-05-05 12:20 52.29984 4.75964 -2 ft 8 kts
2026-05-05 12:20 52.30034 4.75940 -2 ft 8 kts 338°
2026-05-05 12:20 52.30081 4.75967 -2 ft 7 kts 50°
2026-05-05 12:20 52.30110 4.76040 -2 ft 8 kts 58°
2026-05-05 12:21 52.30145 4.76133 -2 ft 11 kts 58°
2026-05-05 12:21 52.30195 4.76238 -2 ft 13 kts 25°
2026-05-05 12:21 52.30275 4.76184 -2 ft 12 kts 327°
2026-05-05 12:21 52.30327 4.76192 -2 ft 6 kts 53°
2026-05-05 12:22 52.30333 4.76206 -2 ft 1 kts 56°
2026-05-05 12:22 52.30336 4.76213 -2 ft 0 kts 56°
2026-05-05 12:22 52.30336 4.76214 -2 ft 0 kts 56°